, OR

(GMT )
Tillamook

Weather History for KTMK - February, 2013

Change the Weather History Date:

Wednesday, February 20, 2013

  Actual Average Record
Temperature  
Mean Temperature 39 °F -  
Max Temperature 48 °F - - ()
Min Temperature 30 °F - - ()
Degree Days  
Heating Degree Days 26    
Moisture  
Dew Point 37 °F    
Average Humidity 93    
Maximum Humidity 100    
Minimum Humidity 71    
Precipitation  
Precipitation 0.42 in - - ()
Sea Level Pressure  
Sea Level Pressure 30.07 in    
Wind  
Wind Speed 3 mph (South)    
Max Wind Speed 13 mph    
Max Gust Speed 18 mph    
Visibility 8 miles    
Events Fog , Rain    
Averages and records for this station are not official NWS values.
T = Trace of Precipitation, MM = Missing Value Source: NWS Daily Summary

Daily Weather History Graph

Daily Weather History Graph

Search for Another Location

Airport or City:

Astronomy

Feb. 20, 2013 Rise Set
Actual Time 8:08 AM MST 6:50 PM MST
Civil Twilight 7:38 AM MST 7:20 PM MST
Nautical Twilight 7:03 AM MST 7:54 PM MST
Astronomical Twilight 6:29 AM MST 8:28 PM MST
Moon 2:07 PM MST (2/20) 4:41 AM MST (2/20)
Length of Visible Light 11h 42m
Length of Day
10h 41m
Waxing Gibbous, 76% of the Moon is Illuminated
Feb 20
Waxing Gibbous
Feb 25
Full
Mar 4
Last Quarter
Mar 11
New
Mar 19
First Quarter

Hourly Weather History & Observations

Time (MST) Temp. Windchill Dew Point Humidity Pressure Visibility Wind Dir Wind Speed Gust Speed Precip Events Conditions
12:15 AM 33.8 °F 30.8 °F 33.8 °F 100% 30.02 in 10.0 mi SE 3.5 mph - N/A   Clear
12:35 AM 32.0 °F - 32.0 °F 100% 30.03 in 10.0 mi Calm Calm - N/A   Clear
12:55 AM 32.0 °F - 32.0 °F 100% 30.04 in 4.0 mi Calm Calm - N/A   Scattered Clouds
1:15 AM 32.0 °F - 32.0 °F 100% 30.05 in 0.2 mi Calm Calm - N/A Fog Fog
1:35 AM 33.8 °F 29.6 °F 33.8 °F 100% 30.05 in 0.5 mi ESE 4.6 mph - N/A Fog Fog
1:55 AM 32.0 °F - 32.0 °F 100% 30.06 in 5.0 mi Calm Calm - N/A   Mostly Cloudy
2:15 AM 32.0 °F - 32.0 °F 100% 30.06 in 7.0 mi Calm Calm - N/A   Scattered Clouds
2:35 AM 32.0 °F - 32.0 °F 100% 30.06 in 1.0 mi Calm Calm - N/A   Overcast
2:55 AM 32.0 °F - 32.0 °F 100% 30.07 in 0.5 mi Calm Calm - N/A Fog Fog
3:15 AM 32.0 °F - 32.0 °F 100% 30.08 in 10.0 mi Calm Calm - N/A   Scattered Clouds
3:35 AM 32.0 °F - 32.0 °F 100% 30.08 in 10.0 mi Calm Calm - N/A   Clear
3:55 AM 32.0 °F - 32.0 °F 100% 30.08 in 10.0 mi Calm Calm - N/A   Clear
4:15 AM 30.2 °F 26.7 °F 30.2 °F 100% 30.08 in 0.8 mi South 3.5 mph - N/A   Scattered Clouds
4:55 AM 32.0 °F 28.7 °F 32.0 °F 100% 30.08 in 5.0 mi SSE 3.5 mph - N/A   Overcast
5:15 AM 30.2 °F - 30.2 °F 100% 30.08 in 10.0 mi Calm Calm - N/A   Scattered Clouds
5:55 AM 32.0 °F 27.5 °F 32.0 °F 100% 30.08 in 10.0 mi SE 4.6 mph - N/A   Scattered Clouds
6:15 AM 30.2 °F - 30.2 °F 100% 30.08 in 10.0 mi Calm Calm - N/A   Mostly Cloudy
6:35 AM 30.2 °F - 30.2 °F 100% 30.09 in 10.0 mi Calm Calm - N/A   Mostly Cloudy
6:55 AM 32.0 °F - 32.0 °F 100% 30.09 in 10.0 mi Calm Calm - N/A   Clear
7:15 AM 30.2 °F - 30.2 °F 100% 30.09 in 10.0 mi Calm Calm - N/A   Clear
7:35 AM 30.2 °F 26.7 °F 30.2 °F 100% 30.10 in 10.0 mi South 3.5 mph - N/A   Clear
7:55 AM 32.0 °F 28.7 °F 32.0 °F 100% 30.10 in 10.0 mi SE 3.5 mph - N/A   Mostly Cloudy
8:15 AM 32.0 °F 28.7 °F 32.0 °F 100% 30.09 in 7.0 mi ESE 3.5 mph - N/A   Overcast
8:35 AM 33.8 °F 30.8 °F 33.8 °F 100% 30.10 in 10.0 mi East 3.5 mph - N/A   Overcast
8:55 AM 33.8 °F - 33.8 °F 100% 30.09 in 10.0 mi Calm Calm - N/A   Overcast
9:15 AM 33.8 °F - 33.8 °F 100% 30.09 in 10.0 mi Calm Calm - N/A   Overcast
9:35 AM 33.8 °F - 33.8 °F 100% 30.09 in 10.0 mi Calm Calm - N/A   Scattered Clouds
9:55 AM 33.8 °F - 33.8 °F 100% 30.08 in 10.0 mi Calm Calm - N/A   Clear
10:15 AM 35.6 °F - 35.6 °F 100% 30.09 in 10.0 mi Calm Calm - N/A   Clear
10:35 AM 35.6 °F - 35.6 °F 100% 30.11 in 10.0 mi Calm Calm - N/A   Scattered Clouds
10:55 AM 37.4 °F - 37.4 °F 100% 30.11 in 10.0 mi Calm Calm - N/A   Mostly Cloudy
11:15 AM 39.2 °F 35.9 °F 39.2 °F 100% 30.10 in 10.0 mi ESE 4.6 mph - N/A   Mostly Cloudy
11:35 AM 41.0 °F - 41.0 °F 100% 30.10 in 10.0 mi Calm Calm - N/A Rain Light Rain
11:55 AM 42.8 °F - 39.2 °F 87% 30.10 in 10.0 mi Calm Calm - N/A   Overcast
12:15 PM 42.8 °F - 37.4 °F 81% 30.09 in 10.0 mi Calm Calm - N/A   Overcast
12:35 PM 44.6 °F - 39.2 °F 81% 30.08 in 10.0 mi Calm Calm - N/A   Overcast
12:55 PM 46.4 °F 43.5 °F 41.0 °F 81% 30.08 in 10.0 mi SSE 5.8 mph - N/A   Mostly Cloudy
1:15 PM 48.2 °F - 39.2 °F 71% 30.08 in 10.0 mi SSE 9.2 mph - N/A   Light Drizzle
1:35 PM 46.4 °F 42.9 °F 41.0 °F 81% 30.08 in 7.0 mi South 6.9 mph - N/A Rain Light Rain
1:55 PM 46.4 °F 43.5 °F 41.0 °F 81% 30.07 in 7.0 mi South 5.8 mph - N/A   Overcast
2:15 PM 46.4 °F 42.9 °F 42.8 °F 87% 30.06 in 7.0 mi South 6.9 mph - N/A Rain Light Rain
2:35 PM 46.4 °F 42.9 °F 42.8 °F 87% 30.05 in 10.0 mi South 6.9 mph - N/A   Overcast
2:55 PM 46.4 °F 43.5 °F 42.8 °F 87% 30.04 in 10.0 mi SSE 5.8 mph - N/A   Overcast
3:15 PM 46.4 °F 42.4 °F 42.8 °F 87% 30.03 in 7.0 mi SSW 8.1 mph - N/A Rain Light Rain
3:35 PM 46.4 °F 41.5 °F 41.0 °F 81% 30.03 in 7.0 mi SSW 10.4 mph - 0.01 in Rain Rain
3:55 PM 44.6 °F 42.2 °F 42.8 °F 93% 30.03 in 5.0 mi South 4.6 mph - 0.03 in Rain Light Rain
4:15 PM 44.6 °F 43.1 °F 42.8 °F 93% 30.03 in 10.0 mi SSE 3.5 mph - 0.02 in Rain Light Rain
4:35 PM 46.4 °F 45.2 °F 42.8 °F 87% 30.02 in 7.0 mi SSW 3.5 mph - 0.02 in Rain Light Rain
4:55 PM 46.4 °F 44.3 °F 42.8 °F 87% 30.02 in 7.0 mi SSW 4.6 mph - 0.03 in Rain Rain
5:15 PM 46.4 °F 41.1 °F 41.0 °F 81% 30.03 in 7.0 mi SW 11.5 mph - N/A Rain Light Rain
5:35 PM 44.6 °F 41.4 °F 41.0 °F 87% 30.04 in 7.0 mi WSW 5.8 mph - 0.01 in Rain Rain
5:55 PM 44.6 °F 39.7 °F 39.2 °F 81% 30.04 in 7.0 mi SW 9.2 mph - 0.04 in Rain Light Rain
6:15 PM 42.8 °F 38.6 °F 39.2 °F 87% 30.04 in 10.0 mi South 6.9 mph - 0.01 in Rain Light Rain
6:35 PM 42.8 °F 38.0 °F 39.2 °F 87% 30.04 in 4.0 mi South 8.1 mph - 0.02 in Rain Rain
6:55 PM 42.8 °F 37.5 °F 39.2 °F 87% 30.04 in 10.0 mi South 9.2 mph - 0.03 in   Overcast
7:15 PM 42.8 °F 37.0 °F 39.2 °F 87% 30.03 in 10.0 mi South 10.4 mph - N/A   Overcast
7:35 PM 42.8 °F - 39.2 °F 87% 30.04 in 4.0 mi Calm Calm - 0.03 in Rain Light Rain
8:15 PM 42.8 °F 41.1 °F 39.2 °F 87% 30.06 in 10.0 mi East 3.5 mph - N/A Rain Light Rain
8:35 PM 42.8 °F - 41.0 °F 93% 30.08 in 3.0 mi Calm Calm - 0.04 in Rain Rain
8:55 PM 42.8 °F - 41.0 °F 93% 30.07 in 4.0 mi Calm Calm - 0.10 in Rain Light Rain
9:35 PM 41.0 °F 35.2 °F 41.0 °F 100% 30.07 in 3.0 mi South 9.2 mph - 0.05 in Rain Heavy Rain
9:55 PM 42.8 °F 40.1 °F 41.0 °F 93% 30.08 in 4.0 mi SE 4.6 mph - 0.09 in Rain Rain
10:15 PM 42.8 °F 38.0 °F 41.0 °F 93% 30.08 in 5.0 mi SSE 8.1 mph - 0.02 in Rain Light Rain
10:35 PM 42.8 °F 40.1 °F 41.0 °F 93% 30.08 in 10.0 mi SSE 4.6 mph - 0.03 in   Overcast
10:55 PM 42.8 °F 40.1 °F 41.0 °F 93% 30.08 in 10.0 mi SSE 4.6 mph - 0.03 in Rain Light Rain
11:15 PM 42.8 °F 40.1 °F 41.0 °F 93% 30.09 in 7.0 mi SW 4.6 mph - N/A Rain Light Rain
11:35 PM 44.6 °F 42.2 °F 41.0 °F 87% 30.09 in 7.0 mi SW 4.6 mph - N/A Rain Light Rain
11:55 PM 44.6 °F 38.4 °F 42.8 °F 93% 30.10 in 5.0 mi West 12.7 mph 18.4 mph 0.04 in Rain Light Rain